This demonstration page uses our WeatherBlox Daily Observations layout. Learn more.

Left ArrowRight Arrow

Hourly Observations for May 28, 2019

Temp ( °F °C ) Dew Point ( °F °C ) Humidity (%) Winds ( mph kmh ) Pressure ( in mb ) Visibility ( mi km ) Precip ( " mm )
12:15 am 00:15 Mostly Cloudy 75 24 72 22 89 89 SSW 10 17 29.77 1008 10 16.0934 N/A
12:35 am 00:35 Cloudy 75 24 72 22 89 89 SW 9 15 29.77 1008 10 16.0934 N/A
12:56 am 00:56 Cloudy 75 24 72 22 89 89 SSW 9 15 29.77 1008 10 16.0934 N/A
1:15 am 01:15 Mostly Cloudy 75 24 72 22 89 89 SSW 10 17 29.76 1008 10 16.0934 N/A
1:35 am 01:35 Partly Cloudy 73 23 72 22 94 94 SSW 10 17 29.76 1008 10 16.0934 N/A
1:55 am 01:55 Partly Cloudy 73 23 72 22 94 94 SSW 10 17 29.76 1008 10 16.0934 N/A
2:15 am 02:15 Partly Cloudy 73 23 70 21 89 89 SSW 10 17 29.75 1007 10 16.0934 N/A
2:35 am 02:35 Mostly Cloudy 73 23 70 21 89 89 SSW 10 17 29.75 1007 10 16.0934 N/A
2:55 am 02:55 Mostly Cloudy 73 23 70 21 89 89 SSW 10 17 29.74 1007 10 16.0934 N/A
3:15 am 03:15 Partly Cloudy 72 22 70 21 94 94 SSW 10 17 29.74 1007 10 16.0934 N/A
3:35 am 03:35 Clear 72 22 70 21 94 94 SSW 9 15 29.74 1007 10 16.0934 N/A
3:55 am 03:55 Clear 72 22 70 21 94 94 SW 9 15 29.74 1007 10 16.0934 N/A
4:15 am 04:15 Clear 72 22 70 21 94 94 SW 8 13 29.74 1007 10 16.0934 N/A
4:35 am 04:35 Clear 72 22 70 21 94 94 SW 8 13 29.74 1007 10 16.0934 N/A
4:56 am 04:56 Clear 72 22 70 21 94 94 SW 10 17 29.75 1008 10 16.0934 N/A
5:15 am 05:15 Clear 72 22 70 21 94 94 WSW 10 17 29.75 1008 10 16.0934 N/A
5:35 am 05:35 Clear 72 22 70 21 94 94 SW 12 19 29.75 1008 10 16.0934 N/A
5:55 am 05:55 Clear 72 22 70 21 94 94 SW 10 17 29.75 1008 10 16.0934 N/A
6:15 am 06:15 Clear 72 22 70 21 94 94 SW 9 15 29.76 1008 10 16.0934 N/A
6:36 am 06:36 Sunny 72 22 70 21 94 94 SW 10 17 29.76 1008 10 16.0934 N/A
6:55 am 06:55 Sunny 72 22 70 21 94 94 SW 10 17 29.76 1008 10 16.0934 N/A
7:15 am 07:15 Sunny 72 22 70 21 94 94 SW 9 15 29.77 1008 10 16.0934 N/A
7:35 am 07:35 Sunny 72 22 70 21 94 94 SW 10 17 29.77 1008 10 16.0934 N/A
7:55 am 07:55 Sunny 73 23 70 21 89 89 SW 8 13 29.77 1008 10 16.0934 N/A
8:15 am 08:15 Sunny 73 23 72 22 94 94 SW 10 17 29.77 1008 10 16.0934 N/A
8:35 am 08:35 Sunny 75 24 72 22 89 89 SW 10 17 29.77 1008 10 16.0934 N/A
8:55 am 08:55 Sunny 75 24 72 22 89 89 SW 14 22 29.77 1008 10 16.0934 N/A
9:15 am 09:15 Sunny 75 24 72 22 89 89 SW 12 19 29.77 1008 10 16.0934 N/A
9:35 am 09:35 Sunny 77 25 72 22 83 83 SW 16 26 29.76 1008 10 16.0934 N/A
9:55 am 09:55 Sunny 77 25 72 22 83 83 SW 14 22 29.75 1008 10 16.0934 N/A
10:15 am 10:15 Sunny 79 26 73 23 84 84 SW 13 20 29.76 1008 10 16.0934 N/A
10:35 am 10:35 Sunny 79 26 73 23 84 84 WSW 12 19 29.76 1008 10 16.0934 N/A
10:55 am 10:55 Sunny 79 26 73 23 84 84 WSW 12 19 29.76 1008 10 16.0934 N/A
11:16 am 11:16 Sunny 81 27 73 23 79 79 SW 13 20 29.76 1008 10 16.0934 N/A
11:35 am 11:35 Partly Cloudy 81 27 73 23 79 79 WSW 10 17 29.76 1008 10 16.0934 N/A
11:55 am 11:55 Mostly Cloudy 81 27 73 23 79 79 SW 14 22 29.77 1008 10 16.0934 N/A
12:15 pm 12:15 Partly Cloudy 82 28 73 23 74 74 SW 14 22 29.75 1008 10 16.0934 N/A
12:35 pm 12:35 Partly Cloudy 82 28 73 23 74 74 WSW 13 20 29.75 1008 10 16.0934 N/A
12:55 pm 12:55 Mostly Cloudy 82 28 75 24 79 79 SW 9 15 29.74 1007 10 16.0934 N/A
1:15 pm 13:15 Mostly Cloudy 82 28 73 23 74 74 WSW 12 19 29.74 1007 10 16.0934 N/A
1:35 pm 13:35 Partly Cloudy 84 29 75 24 74 74 SW 13 20 29.74 1007 10 16.0934 N/A
1:55 pm 13:55 Partly Cloudy 84 29 73 23 70 70 SW 14 22 29.75 1007 10 16.0934 N/A
2:15 pm 14:15 Partly Cloudy 84 29 73 23 70 70 SW 14 22 29.74 1007 10 16.0934 N/A
2:35 pm 14:35 Partly Cloudy 82 28 73 23 74 74 WSW 13 20 29.75 1008 10 16.0934 N/A
2:55 pm 14:55 Mostly Cloudy 84 29 73 23 70 70 SW 16 26 29.74 1007 10 16.0934 N/A
3:15 pm 15:15 Mostly Cloudy 84 29 72 22 66 66 SW 18 30 29.74 1007 10 16.0934 N/A
3:35 pm 15:35 Partly Cloudy 84 29 72 22 66 66 SW 14 22 29.74 1007 10 16.0934 N/A
3:55 pm 15:55 Partly Cloudy 84 29 72 22 66 66 WSW 16 26 29.74 1007 10 16.0934 N/A
4:15 pm 16:15 Partly Cloudy 84 29 73 23 70 70 SW 17 28 29.73 1007 10 16.0934 N/A
4:35 pm 16:35 Partly Cloudy 84 29 72 22 66 66 SW 17 28 29.72 1006 10 16.0934 N/A
4:55 pm 16:55 Partly Cloudy 84 29 72 22 66 66 SW 15 24 29.72 1006 10 16.0934 N/A
5:15 pm 17:15 Partly Cloudy 84 29 70 21 62 62 SW 15 24 29.7 1006 10 16.0934 N/A
5:35 pm 17:35 Sunny 84 29 70 21 62 62 SW 17 28 29.71 1006 10 16.0934 N/A
5:55 pm 17:55 Partly Cloudy 84 29 70 21 62 62 WSW 20 31 29.72 1006 10 16.0934 N/A
6:15 pm 18:15 Mostly Cloudy 84 29 70 21 62 62 SW 14 22 29.73 1007 10 16.0934 N/A
6:35 pm 18:35 Partly Cloudy 84 29 70 21 62 62 WSW 18 30 29.73 1007 10 16.0934 N/A
6:55 pm 18:55 Partly Cloudy 84 29 70 21 62 62 SW 15 24 29.73 1007 10 16.0934 N/A
7:15 pm 19:15 Partly Cloudy 84 29 70 21 62 62 WSW 12 19 29.71 1006 10 16.0934 N/A
7:35 pm 19:35 Sunny 82 28 70 21 66 66 S 10 17 29.68 1005 10 16.0934 N/A
7:56 pm 19:56 Sunny 82 28 70 21 66 66 S 8 13 29.67 1005 10 16.0934 N/A
8:15 pm 20:15 Sunny 81 27 70 21 70 70 SSW 7 11 29.69 1005 10 16.0934 N/A
8:35 pm 20:35 Sunny 81 27 68 20 66 66 SSW 6 9 29.69 1005 10 16.0934 N/A
8:55 pm 20:55 Sunny 79 26 68 20 70 70 SSW 7 11 29.69 1005 10 16.0934 N/A
9:15 pm 21:15 Clear 77 25 70 21 79 79 SSW 6 9 29.7 1006 10 16.0934 N/A
9:36 pm 21:36 Clear 77 25 70 21 79 79 S 5 7 29.7 1006 10 16.0934 N/A
9:55 pm 21:55 Clear 77 25 70 21 79 79 SSW 6 9 29.71 1006 10 16.0934 N/A
10:15 pm 22:15 Clear 77 25 70 21 79 79 SSW 9 15 29.71 1006 10 16.0934 N/A
10:36 pm 22:36 Clear 75 24 70 21 83 83 SSW 8 13 29.73 1007 10 16.0934 N/A
10:55 pm 22:55 Clear 75 24 70 21 83 83 SSW 6 9 29.73 1007 10 16.0934 N/A
11:15 pm 23:15 Clear 75 24 70 21 83 83 SW 7 11 29.74 1007 10 16.0934 N/A
11:35 pm 23:35 Clear 73 23 70 21 89 89 SSW 3 6 29.75 1007 10 16.0934 N/A
11:55 pm 23:55 Clear 73 23 70 21 89 89 SSW 3 6 29.75 1007 10 16.0934 N/A

Powered by AerisWeather